| time (UTC) | temp F | wind direction | speed knots | gust knots | rain 1hr in | rain 24hr in | rain mn in | humidity % | barometer mb |
| 20260504023048 | 53 | 1 | 0.0 | 0.9 | 0.00 | 0.00 | 0.00 | 54 | 1020.3 |
| 20260504021547 | 54 | 1 | 0.0 | 1.7 | 0.00 | 0.00 | 0.00 | 57 | 1020.1 |
| 20260504020046 | 54 | 1 | 0.0 | 4.3 | 0.00 | 0.00 | 0.00 | 52 | 1020.1 |
| 20260504014546 | 55 | 1 | 1.7 | 6.1 | 0.00 | 0.00 | 0.00 | 50 | 1019.8 |
| 20260504013045 | 56 | 1 | 2.6 | 7.0 | 0.00 | 0.00 | 0.00 | 48 | 1019.6 |
| 20260504011545 | 56 | 1 | 1.7 | 5.2 | 0.00 | 0.00 | 0.00 | 48 | 1019.5 |
| 20260504010044 | 56 | 1 | 2.6 | 7.8 | 0.00 | 0.00 | 0.00 | 47 | 1019.3 |
| 20260504004547 | 55 | 1 | 3.5 | 7.8 | 0.00 | 0.00 | 0.00 | 48 | 1019.2 |
| 20260504003051 | 56 | 1 | 4.3 | 7.8 | 0.00 | 0.00 | 0.00 | 52 | 1018.9 |
| 20260504001545 | 56 | 1 | 5.2 | 8.7 | 0.00 | 0.00 | 0.00 | 47 | 1018.9 |
| 20260504000111 | 57 | 1 | 3.5 | 7.0 | 0.00 | 0.00 | 0.00 | 48 | 1019.0 |
| 20260503234550 | 58 | 1 | 4.3 | 7.0 | 0.00 | 0.00 | 0.00 | 48 | 1019.0 |
| 20260503233040 | 58 | 1 | 3.5 | 6.1 | 0.00 | 0.00 | 0.00 | 53 | 1018.8 |
| 20260503231539 | 60 | 1 | 1.7 | 4.3 | 0.00 | 0.00 | 0.00 | 48 | 1018.8 |
| 20260503230043 | 62 | 1 | 4.3 | 6.1 | 0.00 | 0.00 | 0.00 | 43 | 1018.8 |
| 20260503224538 | 63 | 1 | 0.9 | 6.1 | 0.00 | 0.00 | 0.00 | 43 | 1018.8 |
| 20260503223039 | 63 | 1 | 0.9 | 4.3 | 0.00 | 0.00 | 0.00 | 39 | 1018.8 |
| 20260503221547 | 64 | 1 | 1.7 | 2.6 | 0.00 | 0.00 | 0.00 | 41 | 1018.9 |
| 20260503220037 | 64 | 1 | 0.0 | 4.3 | 0.00 | 0.00 | 0.00 | 38 | 1018.9 |
| 20260503214536 | 64 | 1 | 0.9 | 5.2 | 0.00 | 0.00 | 0.00 | 39 | 1018.9 |
| 20260503213031 | 63 | 1 | 0.9 | 9.6 | 0.00 | 0.00 | 0.00 | 37 | 1019.1 |
| 20260503211528 | 64 | 1 | 1.7 | 4.3 | 0.00 | 0.00 | 0.00 | 41 | 1019.2 |
| 20260503210028 | 64 | 1 | 3.5 | 6.1 | 0.00 | 0.00 | 0.00 | 38 | 1019.2 |
| 20260503204526 | 64 | 1 | 2.6 | 4.3 | 0.00 | 0.00 | 0.00 | 39 | 1019.3 |
| 20260503203038 | 64 | 1 | 1.7 | 6.1 | 0.00 | 0.00 | 0.00 | 34 | 1019.5 |
| 20260503201532 | 64 | 1 | 0.9 | 8.7 | 0.00 | 0.00 | 0.00 | 34 | 1019.7 |
| 20260503200024 | 64 | 1 | 4.3 | 10.4 | 0.00 | 0.00 | 0.00 | 35 | 1020.1 |
| 20260503194522 | 63 | 1 | 0.0 | 3.5 | 0.00 | 0.00 | 0.00 | 35 | 1020.3 |
| 20260503193021 | 63 | 360 | 1.7 | 4.3 | 0.00 | 0.00 | 0.00 | 34 | 1020.6 |
| 20260503191519 | 62 | 1 | 0.0 | 7.0 | 0.00 | 0.00 | 0.00 | 41 | 1020.7 |
| 20260503190019 | 62 | 1 | 1.7 | 6.1 | 0.00 | 0.00 | 0.00 | 38 | 1020.9 |
| 20260503184518 | 62 | 1 | 2.6 | 7.0 | 0.00 | 0.00 | 0.00 | 35 | 1021.0 |
| 20260503183020 | 62 | 1 | 3.5 | 8.7 | 0.00 | 0.00 | 0.00 | 40 | 1021.0 |
| 20260503181518 | 61 | 1 | 1.7 | 7.8 | 0.00 | 0.00 | 0.00 | 40 | 1021.2 |
| 20260503180025 | 60 | 1 | 1.7 | 6.1 | 0.00 | 0.00 | 0.00 | 41 | 1021.2 |
| 20260503174517 | 60 | 1 | 0.9 | 7.8 | 0.00 | 0.00 | 0.00 | 43 | 1021.5 |
| 20260503173030 | 61 | 1 | 0.9 | 5.2 | 0.00 | 0.00 | 0.00 | 44 | 1021.7 |
| 20260503171514 | 62 | 1 | 0.0 | 5.2 | 0.00 | 0.00 | 0.00 | 45 | 1021.8 |
| 20260503100104 | 40 | 1 | 0.0 | 0.0 | 0.00 | 0.00 | 0.00 | 82 | 1020.6 |
| 20260503081548 | 41 | 1 | 0.0 | 0.0 | 0.00 | 0.00 | 0.00 | 77 | 1019.7 |
| 20260503071539 | 42 | 1 | 0.0 | 0.0 | 0.00 | 0.00 | 0.00 | 76 | 1019.1 |
| 20260503054528 | 44 | 1 | 0.0 | 0.0 | 0.00 | 0.00 | 0.00 | 72 | 1018.9 |
| 20260503053026 | 44 | 1 | 0.0 | 0.0 | 0.00 | 0.00 | 0.00 | 71 | 1019.0 |
| 20260503051528 | 44 | 1 | 0.0 | 0.9 | 0.00 | 0.00 | 0.00 | 71 | 1019.1 |
| 20260503050023 | 44 | 1 | 0.0 | 2.6 | 0.00 | 0.00 | 0.00 | 73 | 1019.0 |
| 20260503044527 | 44 | 1 | 0.0 | 0.0 | 0.00 | 0.00 | 0.00 | 71 | 1019.0 |
| 20260503043020 | 44 | 1 | 0.0 | 1.7 | 0.00 | 0.00 | 0.00 | 71 | 1018.9 |
| 20260503041518 | 45 | 1 | 0.0 | 1.7 | 0.00 | 0.00 | 0.00 | 70 | 1018.7 |
| 20260503040016 | 45 | 1 | 0.0 | 1.7 | 0.00 | 0.00 | 0.00 | 71 | 1018.6 |
| 20260503034513 | 45 | 1 | 0.0 | 0.0 | 0.00 | 0.00 | 0.00 | 67 | 1018.5 |
| 20260503033010 | 45 | 1 | 0.0 | 0.0 | 0.00 | 0.00 | 0.00 | 66 | 1018.4 |
| 20260503031509 | 46 | 1 | 0.0 | 2.6 | 0.00 | 0.00 | 0.00 | 65 | 1018.4 |
| 20260503030006 | 47 | 1 | 0.0 | 1.7 | 0.00 | 0.00 | 0.00 | 64 | 1018.3 |